timestamp,surface_pressure_avg,surface_temp_avg,battery_voltage,lat,long
2021-08-13 00:09:01+00:00,261.1264,17.07,12.73,47.84626,-54.09684
2021-08-13 00:19:01+00:00,269.8364,17.0,12.73,47.84626,-54.09684
2021-08-13 00:29:01+00:00,280.6064,17.0,12.73,47.84626,-54.09684
2021-08-13 00:39:01+00:00,291.2797,16.99,12.73,47.84626,-54.09684
2021-08-13 00:49:01+00:00,300.4414,16.9,12.73,47.84626,-54.09684
2021-08-13 00:59:01+00:00,308.578,16.87,12.73,47.84626,-54.09684
2021-08-13 01:09:01+00:00,314.21299999999997,16.9,12.73,47.84626,-54.09684
2021-08-13 01:19:01+00:00,319.098,16.92,12.73,47.84626,-54.09684
2021-08-13 01:29:01+00:00,327.2097,16.97,12.73,47.84626,-54.09684
2021-08-13 01:39:01+00:00,333.6463,16.96,12.73,47.84626,-54.09684
2021-08-13 01:49:01+00:00,334.5096,17.0,12.73,47.84626,-54.09684
2021-08-13 01:59:01+00:00,335.4714,17.1,12.73,47.84626,-54.09684
2021-08-13 02:09:01+00:00,337.7663,17.17,12.73,47.84626,-54.09684
2021-08-13 02:19:01+00:00,340.5347,17.14,12.73,47.84626,-54.09684
2021-08-13 02:29:01+00:00,342.9396,17.1,12.73,47.84626,-54.09684
2021-08-13 02:39:01+00:00,344.1846,17.1,12.73,47.84626,-54.09684
2021-08-13 02:49:01+00:00,344.2845,17.1,12.73,47.84626,-54.09684
2021-08-13 02:59:01+00:00,340.6096,17.14,12.73,47.84626,-54.09684
2021-08-13 03:09:01+00:00,339.4046,17.13,12.73,47.84626,-54.09684
2021-08-13 03:19:00+00:00,337.7278,17.17,12.73,47.84626,-54.09684
2021-08-13 03:29:00+00:00,336.3546,17.2,12.73,47.84626,-54.09684
2021-08-13 03:39:00+00:00,332.9446,17.2,12.73,47.84626,-54.09684
2021-08-13 03:49:00+00:00,331.023,17.23,12.73,47.84626,-54.09684
2021-08-13 03:59:00+00:00,327.2164,17.3,12.73,47.84626,-54.09684
2021-08-13 04:09:00+00:00,320.0347,17.39,12.73,47.84626,-54.09684
2021-08-13 04:19:00+00:00,316.83799999999997,17.4,12.73,47.84626,-54.09684
2021-08-13 04:29:00+00:00,314.8363,17.4,12.73,47.84626,-54.09684
2021-08-13 04:39:00+00:00,309.3713,17.4,12.73,47.84626,-54.09684
2021-08-13 04:49:00+00:00,303.6697,17.47,12.73,47.84626,-54.09684
2021-08-13 04:59:00+00:00,301.2396,17.45,12.73,47.84626,-54.09684
2021-08-13 05:09:00+00:00,297.1464,17.4,12.73,47.84626,-54.09684
2021-08-13 05:19:01+00:00,287.408,17.37,12.73,47.84626,-54.09684
2021-08-13 05:29:01+00:00,280.0131,17.4,12.73,47.84626,-54.09684
2021-08-13 05:39:01+00:00,277.0464,17.3,12.73,47.84626,-54.09684
2021-08-13 05:49:01+00:00,268.8464,17.25,12.73,47.84626,-54.09684
2021-08-13 05:59:01+00:00,256.0414,17.27,12.73,47.84626,-54.09684
2021-08-13 06:09:01+00:00,248.0014,17.3,12.73,47.84626,-54.09684
2021-08-13 06:19:01+00:00,241.9015,17.3,12.73,47.84626,-54.09684
2021-08-13 06:29:01+00:00,231.3464,17.29,12.73,47.84626,-54.09684
2021-08-13 06:39:01+00:00,219.2798,17.3,12.73,47.84626,-54.09684
2021-08-13 06:49:01+00:00,211.1797,17.33,12.73,47.84626,-54.09684
2021-08-13 06:59:01+00:00,204.7814,17.36,12.73,47.84626,-54.09684
2021-08-13 07:09:01+00:00,195.0565,17.39,12.73,47.84626,-54.09684
2021-08-13 07:19:01+00:00,184.8465,17.4,12.65,47.84626,-54.09684
2021-08-13 07:29:01+00:00,180.8148,17.4,12.65,47.84626,-54.09684
2021-08-13 07:39:01+00:00,176.8232,17.4,12.65,47.84626,-54.09684
2021-08-13 07:49:01+00:00,169.0798,17.46,12.65,47.84626,-54.09684
2021-08-13 07:59:01+00:00,165.6682,17.52,12.65,47.84626,-54.09684
2021-08-13 08:09:01+00:00,164.1465,17.6,12.65,47.84626,-54.09684
2021-08-13 08:19:01+00:00,160.2865,17.68,12.65,47.84626,-54.09684
2021-08-13 08:29:01+00:00,159.1681,17.7,12.65,47.84626,-54.09684
2021-08-13 08:39:01+00:00,163.2482,17.7,12.65,47.84626,-54.09684
2021-08-13 08:49:01+00:00,165.8682,17.72,12.65,47.84626,-54.09684
2021-08-13 08:59:01+00:00,166.5965,17.78,12.65,47.84626,-54.09684
2021-08-13 09:09:01+00:00,169.4781,17.8,12.65,47.84626,-54.09684
2021-08-13 09:19:01+00:00,172.1498,17.8,12.65,47.84626,-54.09684
2021-08-13 09:29:01+00:00,174.4765,17.8,12.65,47.84626,-54.09684
2021-08-13 09:39:01+00:00,178.7815,17.8,12.65,47.84626,-54.09684
2021-08-13 09:49:01+00:00,186.4198,17.8,12.65,47.84626,-54.09684
2021-08-13 09:59:01+00:00,191.2148,17.79,12.65,47.84626,-54.09684
2021-08-13 10:09:01+00:00,192.6732,17.77,12.65,47.84626,-54.09684
2021-08-13 10:19:01+00:00,199.9582,17.73,12.65,47.84626,-54.09684
2021-08-13 10:29:01+00:00,206.1764,17.7,12.65,47.84626,-54.09684
2021-08-13 10:39:01+00:00,206.6114,17.7,12.65,47.84626,-54.09684
2021-08-13 10:49:01+00:00,213.1815,17.7,12.65,47.84626,-54.09684
2021-08-13 10:59:01+00:00,223.1048,17.7,12.65,47.84626,-54.09684
2021-08-13 11:09:01+00:00,225.1065,17.7,12.65,47.84626,-54.09684
2021-08-13 11:19:01+00:00,227.2431,17.7,12.65,47.84626,-54.09684
2021-08-13 11:29:01+00:00,233.3897,17.7,12.65,47.84626,-54.09684
2021-08-13 11:39:01+00:00,240.0081,17.7,12.65,47.84626,-54.09684
2021-08-13 11:49:01+00:00,244.5131,17.7,12.65,47.84626,-54.09684
2021-08-13 11:59:01+00:00,251.1215,17.7,12.65,47.84626,-54.09684
2021-08-13 12:09:01+00:00,256.7364,17.7,12.65,47.84626,-54.09684
2021-08-13 12:19:01+00:00,261.0914,17.71,12.81,47.84626,-54.09684
2021-08-13 12:29:01+00:00,266.0847,17.74,12.81,47.84626,-54.09684
2021-08-13 12:39:01+00:00,274.6981,17.74,12.81,47.84626,-54.09684
2021-08-13 12:49:01+00:00,283.3864,17.7,12.81,47.84626,-54.09684
2021-08-13 12:59:01+00:00,291.848,17.7,12.81,47.84626,-54.09684
2021-08-13 13:09:01+00:00,300.0131,17.71,12.81,47.84626,-54.09684
2021-08-13 13:19:01+00:00,308.3763,17.7,12.97,47.84626,-54.09684
2021-08-13 13:29:01+00:00,314.8331,17.7,12.97,47.84626,-54.09684
2021-08-13 13:39:01+00:00,320.5664,17.71,12.97,47.84626,-54.09684
2021-08-13 13:49:01+00:00,326.0797,17.71,12.97,47.84626,-54.09684
2021-08-13 13:59:01+00:00,330.1929,17.7,12.97,47.84626,-54.09684
2021-08-13 14:09:01+00:00,333.0797,17.7,12.97,47.84626,-54.09684
2021-08-13 14:19:01+00:00,337.1747,17.71,13.13,47.84626,-54.09684
2021-08-13 14:29:01+00:00,339.8529,17.7,13.13,47.84626,-54.09684
2021-08-13 14:39:01+00:00,336.0463,17.73,13.13,47.84626,-54.09684
2021-08-13 14:49:01+00:00,337.0397,17.76,13.13,47.84626,-54.09684
2021-08-13 14:59:01+00:00,343.1463,17.76,13.13,47.84626,-54.09684
2021-08-13 15:09:01+00:00,345.2747,17.76,13.13,47.84626,-54.09684
2021-08-13 15:19:01+00:00,342.0046,17.76,13.13,47.84626,-54.09684
2021-08-13 15:29:01+00:00,341.2228,17.75,13.13,47.84626,-54.09684
2021-08-13 15:39:01+00:00,339.8997,17.78,13.13,47.84626,-54.09684
2021-08-13 15:49:01+00:00,336.99300000000005,17.8,13.13,47.84626,-54.09684
2021-08-13 15:59:01+00:00,333.5513,17.8,13.13,47.84626,-54.09684
2021-08-13 16:09:01+00:00,334.2313,17.8,13.13,47.84626,-54.09684
2021-08-13 16:19:01+00:00,330.4213,17.8,13.21,47.84626,-54.09684
2021-08-13 16:29:01+00:00,326.6697,17.81,13.21,47.84626,-54.09684
2021-08-13 16:39:01+00:00,322.5114,17.8,13.21,47.84626,-54.09684
2021-08-13 16:49:01+00:00,320.7064,17.8,13.21,47.84626,-54.09684
2021-08-13 16:59:01+00:00,316.503,17.8,13.21,47.84626,-54.09684
2021-08-13 17:09:01+00:00,311.4113,17.8,13.21,47.84626,-54.09684
2021-08-13 17:19:01+00:00,307.138,17.8,13.21,47.84626,-54.09684
2021-08-13 17:29:01+00:00,301.2664,17.81,13.21,47.84626,-54.09684
2021-08-13 17:39:01+00:00,291.6897,17.86,13.21,47.84626,-54.09684
2021-08-13 17:49:01+00:00,282.353,17.89,13.21,47.84626,-54.09684
2021-08-13 17:59:01+00:00,273.6081,17.81,13.21,47.84626,-54.09684
2021-08-13 18:09:01+00:00,264.2332,17.84,13.21,47.84626,-54.09684
2021-08-13 18:19:01+00:00,257.1247,17.85,13.21,47.84626,-54.09684
2021-08-13 18:29:01+00:00,250.0064,17.86,13.21,47.84626,-54.09684
2021-08-13 18:39:01+00:00,240.8414,17.87,13.21,47.84626,-54.09684
2021-08-13 18:49:01+00:00,230.8581,17.89,13.21,47.84626,-54.09684
2021-08-13 18:59:01+00:00,223.0631,17.9,13.21,47.84626,-54.09684
2021-08-13 19:09:01+00:00,213.8014,17.9,13.21,47.84626,-54.09684
2021-08-13 19:19:01+00:00,204.2231,17.9,13.05,47.84626,-54.09684
2021-08-13 19:29:01+00:00,197.7864,17.9,13.05,47.84626,-54.09684
2021-08-13 19:39:01+00:00,192.7848,17.89,13.05,47.84626,-54.09684
2021-08-13 19:49:01+00:00,185.1715,17.89,13.05,47.84626,-54.09684
2021-08-13 19:59:01+00:00,178.0681,17.9,13.05,47.84626,-54.09684
2021-08-13 20:09:01+00:00,176.1081,17.9,13.05,47.84626,-54.09684
2021-08-13 20:19:01+00:00,175.2114,17.9,13.05,47.84626,-54.09684
2021-08-13 20:29:01+00:00,172.0515,17.9,13.05,47.84626,-54.09684
2021-08-13 20:39:01+00:00,171.5865,17.9,13.05,47.84626,-54.09684
2021-08-13 20:49:01+00:00,174.6631,17.9,13.05,47.84626,-54.09684
2021-08-13 20:59:01+00:00,173.4698,17.9,13.05,47.84626,-54.09684
2021-08-13 21:09:01+00:00,171.7999,17.98,13.05,47.84626,-54.09684
2021-08-13 21:19:01+00:00,177.2781,18.0,12.97,47.84626,-54.09684
2021-08-13 21:29:01+00:00,183.5731,18.04,12.97,47.84626,-54.09684
2021-08-13 21:39:01+00:00,183.7181,18.1,12.97,47.84626,-54.09684
2021-08-13 21:49:01+00:00,186.5615,18.1,12.97,47.84626,-54.09684
2021-08-13 21:59:01+00:00,195.5231,18.1,12.97,47.84626,-54.09684
2021-08-13 22:09:01+00:00,200.4648,18.1,12.97,47.84626,-54.09684
2021-08-13 22:19:01+00:00,203.1931,18.1,12.81,47.84626,-54.09684
2021-08-13 22:29:01+00:00,210.3381,18.03,12.81,47.84626,-54.09684
2021-08-13 22:39:01+00:00,218.2864,18.0,12.81,47.84626,-54.09684
2021-08-13 22:49:01+00:00,222.4281,18.0,12.81,47.84626,-54.09684
2021-08-13 22:59:01+00:00,222.3815,18.0,12.81,47.84626,-54.09684
2021-08-13 23:09:01+00:00,222.5815,18.0,12.81,47.84626,-54.09684
2021-08-13 23:19:01+00:00,226.2664,18.0,12.81,47.84626,-54.09684
2021-08-13 23:29:01+00:00,227.1448,18.0,12.81,47.84626,-54.09684
2021-08-13 23:39:01+00:00,227.9547,18.0,12.81,47.84626,-54.09684
2021-08-13 23:49:01+00:00,231.4031,18.0,12.81,47.84626,-54.09684
2021-08-13 23:59:01+00:00,235.0314,18.0,12.81,47.84626,-54.09684
